Hourly Weather Islamabad

Today, 14 August, Friday

Time Temperature Precipitation Wind Pressure Humidity
00:00 +30°C° 1.1 mm 4 mps 705 mmHg 80%
01:00 +29°C° 1.1 mm 4 mps 705 mmHg 84%
02:00 +29°C° 1.1 mm 4 mps 706 mmHg 87%
03:00 +28°C° 1.7 mm 4 mps 706 mmHg 87%
04:00 +28°C° 1.7 mm 4 mps 706 mmHg 87%
05:00 +28°C° 1.7 mm 4 mps 706 mmHg 87%
06:00 +29°C° 0.7 mm 4 mps 706 mmHg 83%
07:00 +30°C° 0.7 mm 4 mps 707 mmHg 79%
08:00 +30°C° 0.7 mm 4 mps 707 mmHg 76%
09:00 +32°C° 0 mm 4 mps 707 mmHg 72%
10:00 +33°C° 0 mm 4 mps 707 mmHg 69%
11:00 +34°C° 0 mm 4 mps 707 mmHg 65%
12:00 +35°C° 0.1 mm 4 mps 706 mmHg 62%
13:00 +36°C° 0.1 mm 3 mps 706 mmHg 59%
14:00 +36°C° 0.1 mm 2 mps 706 mmHg 56%
15:00 +36°C° 0.1 mm 2 mps 705 mmHg 55%
16:00 +36°C° 0.1 mm 2 mps 704 mmHg 55%
17:00 +35°C° 0.1 mm 1 mps 704 mmHg 55%
18:00 +35°C° 0 mm 2 mps 704 mmHg 59%
19:00 +34°C° 0 mm 2 mps 704 mmHg 63%
20:00 +32°C° 0 mm 2 mps 704 mmHg 66%
21:00 +33°C° 0 mm 3 mps 704 mmHg 68%
22:00 +31°C° 0 mm 3 mps 704 mmHg 70%
23:00 +31°C° 0 mm 3 mps 704 mmHg 71%

Tomorrow, 15 August, Saturday

Time Temperature Precipitation Wind Pressure Humidity
00:00 +31°C° 0 mm 3 mps 704 mmHg 72%
01:00 +30°C° 0 mm 2 mps 704 mmHg 73%
02:00 +30°C° 0 mm 2 mps 704 mmHg 73%
03:00 +30°C° 0.6 mm 2 mps 704 mmHg 75%
04:00 +29°C° 0.6 mm 2 mps 704 mmHg 77%
05:00 +29°C° 0.6 mm 2 mps 704 mmHg 78%
06:00 +30°C° 0.4 mm 2 mps 704 mmHg 76%
07:00 +31°C° 0.4 mm 2 mps 704 mmHg 73%
08:00 +31°C° 0.4 mm 2 mps 704 mmHg 71%
09:00 +32°C° 1.1 mm 2 mps 705 mmHg 67%
10:00 +34°C° 1.1 mm 2 mps 705 mmHg 64%
11:00 +36°C° 1.1 mm 2 mps 705 mmHg 60%
12:00 +35°C° 0.3 mm 1 mps 705 mmHg 57%
13:00 +36°C° 0.3 mm 1 mps 704 mmHg 55%
14:00 +37°C° 0.3 mm 1 mps 704 mmHg 52%
15:00 +37°C° 0.1 mm 1 mps 704 mmHg 52%
16:00 +38°C° 0.1 mm 2 mps 704 mmHg 51%
17:00 +38°C° 0.1 mm 2 mps 703 mmHg 51%
18:00 +37°C° 0 mm 2 mps 703 mmHg 54%
19:00 +36°C° 0 mm 2 mps 703 mmHg 58%
20:00 +34°C° 0 mm 2 mps 703 mmHg 61%
21:00 +34°C° 0 mm 2 mps 704 mmHg 61%
22:00 +34°C° 0 mm 2 mps 704 mmHg 61%
23:00 +32°C° 0 mm 2 mps 704 mmHg 61%

Day after tomorrow, 16 August, Sunday

Time Temperature Precipitation Wind Pressure Humidity
00:00 +33°C° 0.1 mm 3 mps 704 mmHg 63%
01:00 +31°C° 0.1 mm 3 mps 704 mmHg 65%
02:00 +31°C° 0.1 mm 3 mps 704 mmHg 68%
03:00 +31°C° 0.6 mm 2 mps 704 mmHg 69%
04:00 +30°C° 0.6 mm 2 mps 704 mmHg 71%
05:00 +30°C° 0.6 mm 2 mps 704 mmHg 73%
06:00 +30°C° 0.1 mm 2 mps 704 mmHg 72%
07:00 +31°C° 0.1 mm 2 mps 705 mmHg 72%
08:00 +33°C° 0.1 mm 3 mps 705 mmHg 71%
09:00 +34°C° 0.2 mm 2 mps 705 mmHg 67%
10:00 +35°C° 0.2 mm 2 mps 705 mmHg 64%
11:00 +36°C° 0.2 mm 2 mps 705 mmHg 60%
12:00 +37°C° 0.2 mm 2 mps 705 mmHg 56%
13:00 +38°C° 0.2 mm 2 mps 705 mmHg 53%
14:00 +39°C° 0.2 mm 1 mps 704 mmHg 49%
15:00 +39°C° 0 mm 1 mps 704 mmHg 50%
16:00 +39°C° 0 mm 1 mps 704 mmHg 51%
17:00 +38°C° 0 mm 2 mps 703 mmHg 51%
18:00 +37°C° 0 mm 2 mps 703 mmHg 55%
19:00 +36°C° 0 mm 2 mps 704 mmHg 59%
20:00 +35°C° 0 mm 3 mps 704 mmHg 64%
21:00 +34°C° 0 mm 3 mps 704 mmHg 65%
22:00 +34°C° 0 mm 3 mps 704 mmHg 67%
23:00 +33°C° 0 mm 3 mps 705 mmHg 69%

17 August, Monday

Time Temperature Precipitation Wind Pressure Humidity
00:00 +33°C° 0 mm 3 mps 704 mmHg 71%
01:00 +31°C° 0 mm 3 mps 704 mmHg 72%
02:00 +31°C° 0 mm 3 mps 704 mmHg 74%
03:00 +31°C° 0.1 mm 3 mps 704 mmHg 75%
04:00 +31°C° 0.1 mm 3 mps 704 mmHg 76%
05:00 +30°C° 0.1 mm 3 mps 704 mmHg 77%
06:00 +31°C° 0.2 mm 3 mps 704 mmHg 77%
07:00 +31°C° 0.2 mm 3 mps 705 mmHg 77%
08:00 +31°C° 0.2 mm 3 mps 705 mmHg 76%
09:00 +31°C° 0.3 mm 3 mps 705 mmHg 75%
10:00 +32°C° 0.3 mm 2 mps 705 mmHg 74%
11:00 +32°C° 0.3 mm 2 mps 705 mmHg 73%
12:00 +34°C° 0.6 mm 2 mps 704 mmHg 67%
13:00 +36°C° 0.6 mm 3 mps 704 mmHg 62%
14:00 +37°C° 0.6 mm 3 mps 704 mmHg 56%
15:00 +37°C° 0.2 mm 3 mps 704 mmHg 56%
16:00 +37°C° 0.2 mm 3 mps 704 mmHg 56%
17:00 +37°C° 0.2 mm 3 mps 703 mmHg 56%
18:00 +36°C° 0 mm 3 mps 704 mmHg 60%
19:00 +35°C° 0 mm 3 mps 704 mmHg 64%
20:00 +34°C° 0 mm 3 mps 704 mmHg 67%
21:00 +33°C° 0.1 mm 3 mps 704 mmHg 69%
22:00 +33°C° 0.1 mm 3 mps 704 mmHg 71%
23:00 +31°C° 0.1 mm 3 mps 705 mmHg 73%

18 August, Tuesday

Time Temperature Precipitation Wind Pressure Humidity
00:00 +31°C° 0.2 mm 3 mps 704 mmHg 75%
01:00 +30°C° 0.2 mm 3 mps 704 mmHg 77%
02:00 +30°C° 0.2 mm 3 mps 704 mmHg 79%
03:00 +30°C° 2.4 mm 3 mps 704 mmHg 81%
04:00 +29°C° 2.4 mm 3 mps 704 mmHg 83%
05:00 +29°C° 2.4 mm 3 mps 704 mmHg 85%
06:00 +30°C° 1.7 mm 3 mps 704 mmHg 81%
07:00 +31°C° 1.7 mm 3 mps 705 mmHg 77%
08:00 +33°C° 1.7 mm 3 mps 705 mmHg 74%
09:00 +34°C° 0.9 mm 3 mps 705 mmHg 70%
10:00 +35°C° 0.9 mm 4 mps 705 mmHg 67%
11:00 +36°C° 0.9 mm 4 mps 705 mmHg 63%
12:00 +37°C° 0.7 mm 4 mps 705 mmHg 60%
13:00 +37°C° 0.7 mm 4 mps 705 mmHg 57%
14:00 +38°C° 0.7 mm 4 mps 704 mmHg 54%
15:00 +38°C° 0.1 mm 4 mps 704 mmHg 56%
16:00 +37°C° 0.1 mm 4 mps 704 mmHg 57%
17:00 +37°C° 0.1 mm 4 mps 703 mmHg 59%
18:00 +35°C° 1 mm 4 mps 703 mmHg 63%
19:00 +34°C° 1 mm 4 mps 703 mmHg 68%
20:00 +32°C° 1 mm 4 mps 703 mmHg 72%
21:00 +31°C° 1.8 mm 3 mps 703 mmHg 75%
22:00 +30°C° 1.8 mm 3 mps 704 mmHg 78%
23:00 +30°C° 1.8 mm 3 mps 704 mmHg 80%

19 August, Wednesday

Time Temperature Precipitation Wind Pressure Humidity
00:00 +29°C° 7.1 mm 2 mps 704 mmHg 84%
01:00 +28°C° 7.1 mm 2 mps 704 mmHg 87%
02:00 +28°C° 7.1 mm 2 mps 703 mmHg 91%
03:00 +28°C° 4.2 mm 2 mps 703 mmHg 90%
04:00 +27°C° 4.2 mm 3 mps 704 mmHg 90%
05:00 +27°C° 4.2 mm 4 mps 704 mmHg 89%
06:00 +28°C° 0.1 mm 3 mps 704 mmHg 84%
07:00 +29°C° 0.1 mm 2 mps 704 mmHg 79%
08:00 +30°C° 0.1 mm 2 mps 705 mmHg 75%
09:00 +31°C° 0.1 mm 2 mps 705 mmHg 70%
10:00 +33°C° 0.1 mm 3 mps 705 mmHg 65%
11:00 +34°C° 0.1 mm 4 mps 705 mmHg 61%
12:00 +35°C° 0.1 mm 4 mps 705 mmHg 60%
13:00 +35°C° 0.1 mm 4 mps 705 mmHg 59%
14:00 +35°C° 0.1 mm 4 mps 704 mmHg 59%
15:00 +35°C° 0.1 mm 4 mps 704 mmHg 61%
16:00 +35°C° 0.1 mm 4 mps 704 mmHg 63%
17:00 +35°C° 0.1 mm 4 mps 704 mmHg 66%
18:00 +33°C° 0.5 mm 4 mps 704 mmHg 70%
19:00 +32°C° 0.5 mm 4 mps 704 mmHg 75%
20:00 +30°C° 0.5 mm 3 mps 704 mmHg 79%
21:00 +30°C° 1.2 mm 3 mps 704 mmHg 81%
22:00 +29°C° 1.2 mm 3 mps 705 mmHg 84%
23:00 +29°C° 1.2 mm 3 mps 705 mmHg 87%
Show more